DW8097 Weather Reports


Display with metric or nautical units.
time (UTC)temp
F
wind
direction
speed
MPH
gust
MPH
rain 1hr
in
rain 24hr
in
rain mn
in
humidity
%
barometer
mb
20260906044532 66 216 0.0 0.0 0.00 0.00 0.00 92 1015.8
20260906043031 67 227 0.0 0.0 0.00 0.00 0.00 92 1015.9
20260906041527 67 227 0.0 0.0 0.00 0.00 0.00 91 1015.9
20260906040030 68 253 0.0 1.0 0.00 0.00 0.00 92 1015.9
20260906034534 67 253 0.0 0.0 0.00 0.00 0.00 91 1015.8
20260906033028 68 254 1.0 3.0 0.00 0.00 0.00 90 1015.8
20260906031519 68 241 0.0 0.0 0.00 0.00 0.00 90 1015.5
20260906030016 69 240 0.0 1.0 0.00 0.00 0.00 90 1015.4
20260906024514 69 217 0.0 1.0 0.00 0.00 0.00 91 1015.0
20260906023013 69 217 0.0 0.0 0.00 0.00 0.00 89 1014.7
20260906021510 69 217 0.0 0.0 0.00 0.00 0.00 89 1014.4
20260906020009 69 187 0.0 2.0 0.00 0.00 0.00 89 1014.2
20260906014520 70 223 0.0 2.0 0.00 0.00 0.00 88 1013.8
20260906013008 70 220 0.0 2.0 0.00 0.00 0.00 87 1013.6
20260906011600 71 217 0.0 2.0 0.00 0.00 0.00 86 1013.6
20260906011505 71 222 0.0 2.0 0.00 0.00 0.00 86 1013.5
20260906010111 72 213 0.0 0.0 0.00 0.00 0.00 85 1013.5
20260906004554 73 242 0.0 0.0 0.00 0.00 0.00 82 1013.3
20260906003108 74 223 0.0 3.0 0.00 0.00 0.00 81 1013.0
20260906001548 76 240 0.0 3.0 0.00 0.00 0.00 77 1013.0
20260906000043 78 211 1.0 9.0 0.00 0.00 0.00 73 1012.8
20260905234542 79 115 3.0 11.0 0.00 0.00 0.00 72 1012.9
20260905233042 79 120 6.0 11.0 0.00 0.00 0.00 72 1012.8
20260905231541 79 119 4.0 13.0 0.00 0.00 0.00 72 1012.7
20260905230039 79 86 7.0 16.0 0.00 0.00 0.00 71 1012.7
20260905224538 79 133 6.0 10.0 0.00 0.00 0.00 72 1012.8
20260905223037 79 132 5.0 11.0 0.00 0.00 0.00 71 1012.6
20260905221534 80 123 8.0 14.0 0.00 0.00 0.00 70 1012.6
20260905220041 80 136 7.0 13.0 0.00 0.00 0.00 71 1012.6
20260905214531 80 127 8.0 13.0 0.00 0.00 0.00 69 1012.8
20260905213039 80 140 6.0 11.0 0.00 0.00 0.00 71 1013.1
20260905211528 81 101 4.0 11.0 0.00 0.00 0.00 70 1013.4
20260905210023 82 113 5.0 8.0 0.00 0.00 0.00 69 1013.6
20260905204521 81 122 5.0 9.0 0.00 0.00 0.00 68 1013.9
20260905203021 83 148 3.0 6.0 0.00 0.00 0.00 66 1014.1
20260905201519 82 134 1.0 7.0 0.00 0.00 0.00 66 1014.3
20260905200019 83 171 3.0 7.0 0.00 0.00 0.00 64 1014.4
20260905194517 84 122 2.0 9.0 0.00 0.00 0.00 61 1014.3
20260905193015 84 186 3.0 11.0 0.00 0.00 0.00 63 1014.0
20260905191510 83 130 6.0 11.0 0.00 0.00 0.00 66 1014.0
20260905190011 82 115 6.0 8.0 0.00 0.00 0.00 67 1014.2
20260905184505 82 172 2.0 7.0 0.00 0.00 0.00 66 1014.6
20260905183001 81 128 2.0 8.0 0.00 0.00 0.00 69 1014.7
20260905181536 80 142 2.0 9.0 0.00 0.00 0.00 70 1014.6
20260905180031 80 100 3.0 7.0 0.00 0.00 0.00 71 1014.8
20260905174530 80 121 1.0 6.0 0.00 0.00 0.00 71 1014.9
20260905173026 79 147 0.0 9.0 0.00 0.00 0.00 71 1015.2
20260905171526 81 109 2.0 7.0 0.00 0.00 0.00 71 1015.1
20260905170023 79 119 1.0 7.0 0.00 0.00 0.00 72 1015.0
20260905164517 78 180 5.0 8.0 0.00 0.00 0.00 75 1014.9
20260905163013 78 123 4.0 9.0 0.00 0.00 0.00 76 1014.9
20260905161506 77 107 1.0 8.0 0.00 0.00 0.00 78 1014.8
20260905160007 76 119 3.0 7.0 0.00 0.00 0.00 79 1014.6
20260905154603 77 92 4.0 8.0 0.00 0.00 0.00 79 1014.6
20260905153059 75 111 1.0 6.0 0.00 0.00 0.00 81 1014.7
20260905151559 75 118 1.0 5.0 0.00 0.00 0.00 82 1014.9
20260905150101 74 109 0.0 4.0 0.00 0.00 0.00 83 1014.8
20260905144556 74 159 1.0 5.0 0.00 0.00 0.00 83 1014.6
20260905143026 74 148 1.0 8.0 0.00 0.00 0.00 83 1014.3
20260905141524 74 121 1.0 4.0 0.00 0.00 0.00 84 1014.1
20260905141522 74 117 1.0 4.0 0.00 0.00 0.00 84 1014.1
20260905140018 74 107 2.0 6.0 0.00 0.00 0.00 84 1014.0
20260905134522 74 142 2.0 6.0 0.00 0.00 0.00 85 1014.1
20260905133016 74 73 2.0 8.0 0.00 0.00 0.00 85 1013.8
20260905131526 73 89 2.0 7.0 0.00 0.00 0.00 87 1013.2
20260905130009 73 119 1.0 7.0 0.00 0.00 0.00 88 1013.0
20260905124510 72 128 3.0 6.0 0.00 0.00 0.00 89 1012.8
20260905123009 72 94 1.0 5.0 0.00 0.00 0.00 89 1012.8
20260905121510 72 105 1.0 7.0 0.00 0.00 0.00 89 1012.8
20260905120038 72 142 2.0 6.0 0.00 0.00 0.00 90 1012.9
20260905114544 71 66 1.0 4.0 0.00 0.00 0.00 90 1012.8
20260905113038 71 88 2.0 4.0 0.00 0.00 0.00 90 1012.7
20260905111541 71 107 1.0 5.0 0.00 0.00 0.00 90 1012.7
20260905110036 71 101 0.0 3.0 0.00 0.00 0.00 90 1012.6
20260905104532 71 79 3.0 8.0 0.00 0.00 0.00 92 1012.4
20260905103029 70 106 3.0 8.0 0.00 0.00 0.00 92 1012.4
20260905101539 70 132 3.0 8.0 0.00 0.00 0.00 92 1011.8
20260905100027 71 146 3.0 6.0 0.00 0.00 0.00 91 1011.7
20260905094525 71 113 1.0 5.0 0.00 0.00 0.00 91 1011.7
20260905093023 70 97 0.0 0.0 0.00 0.00 0.00 90 1011.6
20260905091522 71 134 0.0 0.0 0.00 0.00 0.00 91 1011.9
20260905090022 71 96 0.0 5.0 0.00 0.00 0.00 92 1012.0
20260905084620 71 103 0.0 4.0 0.00 0.00 0.00 92 1012.0
20260905083017 70 88 0.0 2.0 0.00 0.00 0.00 92 1012.1
20260905081517 70 98 0.0 3.0 0.00 0.00 0.00 92 1012.2
20260905080018 70 120 0.0 3.0 0.00 0.00 0.00 92 1012.2
20260905074516 70 107 0.0 1.0 0.00 0.00 0.00 91 1012.3
20260905073016 71 90 1.0 7.0 0.00 0.00 0.00 90 1012.3
20260905071511 71 118 0.0 3.0 0.00 0.00 0.00 89 1012.2
20260905070013 71 84 1.0 6.0 0.00 0.00 0.00 88 1012.0
20260905064511 71 66 0.0 0.0 0.00 0.00 0.00 87 1012.0
20260905063004 72 92 0.0 4.0 0.00 0.00 0.00 87 1011.8
20260905061502 71 67 0.0 0.0 0.00 0.00 0.00 87 1011.7
20260905060101 72 101 0.0 0.0 0.00 0.00 0.00 86 1011.8
20260905054557 73 115 0.0 2.0 0.00 0.00 0.00 84 1011.8
20260905053059 74 127 2.0 9.0 0.00 0.00 0.00 84 1011.6
20260905051553 74 66 0.0 5.0 0.00 0.00 0.00 83 1011.4
20260905050051 73 65 0.0 0.0 0.00 0.00 0.00 82 1011.3
20260905044550 75 5 0.0 0.0 0.00 0.00 0.00 83 1011.3